When you browse on this site, cookies collect data to enhance your experience and personalize the content and advertising you see.
Visit our Privacy Policy to learn more. By continuing to use the site, you agree to this use of cookies and data.
  • In Germany
  • List of Countries
  • For 7 days
  • Water Temperature
  • Weather Map
  • Weather Widgets
  • user-avatar
    Login

    Hourly Weather Shusha

    Today, 18 August, Sunday

    Time Temperature Precipitation Wind Pressure Humidity
    00:00 +18°C° 0 mm 0 mps 658 mmHg 63%
    01:00 +20°C° 0 mm 1 mps 658 mmHg 64%
    02:00 +19°C° 0 mm 1 mps 658 mmHg 65%
    03:00 +19°C° 0 mm 1 mps 658 mmHg 68%
    04:00 +19°C° 0 mm 1 mps 658 mmHg 66%
    05:00 +19°C° 0 mm 1 mps 658 mmHg 64%
    06:00 +19°C° 0 mm 1 mps 659 mmHg 62%
    07:00 +22°C° 0 mm 1 mps 659 mmHg 51%
    08:00 +24°C° 0 mm 1 mps 660 mmHg 40%
    09:00 +26°C° 0 mm 2 mps 660 mmHg 28%
    10:00 +27°C° 0 mm 2 mps 660 mmHg 26%
    11:00 +29°C° 0 mm 3 mps 660 mmHg 23%
    12:00 +30°C° 0 mm 3 mps 660 mmHg 21%
    13:00 +30°C° 0 mm 3 mps 660 mmHg 21%
    14:00 +30°C° 0 mm 3 mps 660 mmHg 22%
    15:00 +30°C° 0 mm 3 mps 660 mmHg 23%
    16:00 +29°C° 0 mm 3 mps 660 mmHg 26%
    17:00 +28°C° 0 mm 2 mps 660 mmHg 29%
    18:00 +27°C° 0 mm 2 mps 659 mmHg 32%
    19:00 +25°C° 0 mm 2 mps 659 mmHg 34%
    20:00 +23°C° 0 mm 1 mps 659 mmHg 37%
    21:00 +21°C° 0 mm 1 mps 659 mmHg 40%
    22:00 +21°C° 0 mm 1 mps 659 mmHg 40%
    23:00 +21°C° 0 mm 1 mps 659 mmHg 40%

    Tomorrow, 19 August, Monday

    Time Temperature Precipitation Wind Pressure Humidity
    00:00 +21°C° 0 mm 1 mps 659 mmHg 41%
    01:00 +20°C° 0 mm 1 mps 659 mmHg 41%
    02:00 +20°C° 0 mm 1 mps 660 mmHg 41%
    03:00 +20°C° 0 mm 1 mps 660 mmHg 41%
    04:00 +20°C° 0 mm 1 mps 660 mmHg 41%
    05:00 +20°C° 0 mm 1 mps 660 mmHg 41%
    06:00 +21°C° 0 mm 1 mps 661 mmHg 41%
    07:00 +23°C° 0 mm 1 mps 661 mmHg 35%
    08:00 +25°C° 0 mm 2 mps 662 mmHg 29%
    09:00 +28°C° 0 mm 2 mps 663 mmHg 24%
    10:00 +29°C° 0 mm 2 mps 663 mmHg 22%
    11:00 +30°C° 0 mm 3 mps 663 mmHg 20%
    12:00 +31°C° 0 mm 3 mps 664 mmHg 18%
    13:00 +31°C° 0 mm 3 mps 663 mmHg 18%
    14:00 +33°C° 0 mm 3 mps 663 mmHg 18%
    15:00 +33°C° 0 mm 4 mps 663 mmHg 18%
    16:00 +30°C° 0 mm 3 mps 663 mmHg 21%
    17:00 +29°C° 0 mm 2 mps 663 mmHg 24%
    18:00 +28°C° 0 mm 2 mps 662 mmHg 27%
    19:00 +26°C° 0 mm 2 mps 662 mmHg 29%
    20:00 +24°C° 0 mm 1 mps 662 mmHg 32%
    21:00 +22°C° 0 mm 1 mps 662 mmHg 35%
    22:00 +22°C° 0 mm 1 mps 662 mmHg 35%
    23:00 +21°C° 0 mm 1 mps 662 mmHg 35%

    Day after tomorrow, 20 August, Tuesday

    Time Temperature Precipitation Wind Pressure Humidity
    00:00 +20°C° 0 mm 2 mps 662 mmHg 34%
    01:00 +21°C° 0 mm 1 mps 662 mmHg 35%
    02:00 +20°C° 0 mm 1 mps 662 mmHg 35%
    03:00 +20°C° 0 mm 1 mps 662 mmHg 36%
    04:00 +20°C° 0 mm 1 mps 663 mmHg 35%
    05:00 +20°C° 0 mm 1 mps 663 mmHg 35%
    06:00 +20°C° 0 mm 1 mps 663 mmHg 34%
    07:00 +23°C° 0 mm 1 mps 664 mmHg 29%
    08:00 +25°C° 0 mm 1 mps 665 mmHg 23%
    09:00 +28°C° 0 mm 2 mps 665 mmHg 17%
    10:00 +29°C° 0 mm 2 mps 665 mmHg 16%
    11:00 +30°C° 0 mm 3 mps 665 mmHg 14%
    12:00 +31°C° 0 mm 3 mps 665 mmHg 12%
    13:00 +33°C° 0 mm 3 mps 665 mmHg 12%
    14:00 +33°C° 0 mm 3 mps 664 mmHg 12%
    15:00 +33°C° 0 mm 4 mps 664 mmHg 12%
    16:00 +31°C° 0 mm 3 mps 664 mmHg 15%
    17:00 +29°C° 0 mm 2 mps 663 mmHg 18%
    18:00 +28°C° 0 mm 2 mps 663 mmHg 21%
    19:00 +26°C° 0 mm 2 mps 663 mmHg 23%
    20:00 +24°C° 0 mm 2 mps 663 mmHg 25%
    21:00 +21°C° 0 mm 2 mps 662 mmHg 27%
    22:00 +21°C° 0 mm 2 mps 662 mmHg 27%
    23:00 +20°C° 0 mm 2 mps 662 mmHg 27%

    21 August, Wednesday

    Time Temperature Precipitation Wind Pressure Humidity
    00:00 +20°C° 0 mm 2 mps 662 mmHg 27%
    01:00 +20°C° 0 mm 2 mps 662 mmHg 27%
    02:00 +20°C° 0 mm 2 mps 662 mmHg 27%
    03:00 +20°C° 0 mm 1 mps 662 mmHg 27%
    04:00 +20°C° 0 mm 1 mps 662 mmHg 28%
    05:00 +20°C° 0 mm 1 mps 662 mmHg 29%
    06:00 +20°C° 0 mm 1 mps 662 mmHg 30%
    07:00 +23°C° 0 mm 1 mps 663 mmHg 26%
    08:00 +25°C° 0 mm 2 mps 664 mmHg 23%
    09:00 +28°C° 0 mm 2 mps 664 mmHg 19%
    10:00 +29°C° 0 mm 2 mps 664 mmHg 17%
    11:00 +30°C° 0 mm 3 mps 664 mmHg 16%
    12:00 +31°C° 0 mm 3 mps 664 mmHg 15%
    13:00 +31°C° 0 mm 3 mps 663 mmHg 15%
    14:00 +31°C° 0 mm 3 mps 663 mmHg 15%
    15:00 +33°C° 0 mm 3 mps 663 mmHg 14%
    16:00 +30°C° 0 mm 3 mps 662 mmHg 17%
    17:00 +29°C° 0 mm 2 mps 662 mmHg 19%
    18:00 +28°C° 0 mm 2 mps 661 mmHg 22%
    19:00 +26°C° 0 mm 2 mps 661 mmHg 24%
    20:00 +24°C° 0 mm 2 mps 661 mmHg 25%
    21:00 +21°C° 0 mm 2 mps 661 mmHg 27%
    22:00 +21°C° 0 mm 2 mps 661 mmHg 27%
    23:00 +20°C° 0 mm 2 mps 661 mmHg 27%

    22 August, Thursday

    Time Temperature Precipitation Wind Pressure Humidity
    00:00 +20°C° 0 mm 2 mps 661 mmHg 27%
    01:00 +20°C° 0 mm 2 mps 660 mmHg 27%
    02:00 +20°C° 0 mm 2 mps 660 mmHg 27%
    03:00 +19°C° 0 mm 2 mps 660 mmHg 28%
    04:00 +19°C° 0 mm 2 mps 660 mmHg 28%
    05:00 +21°C° 0 mm 1 mps 660 mmHg 29%
    06:00 +21°C° 0 mm 1 mps 660 mmHg 29%
    07:00 +23°C° 0 mm 1 mps 661 mmHg 26%
    08:00 +25°C° 0 mm 2 mps 661 mmHg 22%
    09:00 +28°C° 0 mm 2 mps 662 mmHg 19%
    10:00 +29°C° 0 mm 2 mps 662 mmHg 18%
    11:00 +30°C° 0 mm 3 mps 662 mmHg 16%
    12:00 +31°C° 0 mm 3 mps 662 mmHg 15%
    13:00 +31°C° 0 mm 3 mps 661 mmHg 15%
    14:00 +31°C° 0 mm 3 mps 661 mmHg 15%
    15:00 +33°C° 0 mm 4 mps 660 mmHg 15%
    16:00 +30°C° 0 mm 3 mps 660 mmHg 17%
    17:00 +29°C° 0 mm 3 mps 660 mmHg 19%
    18:00 +28°C° 0 mm 2 mps 659 mmHg 21%
    19:00 +26°C° 0 mm 2 mps 659 mmHg 24%
    20:00 +24°C° 0 mm 2 mps 659 mmHg 27%
    21:00 +21°C° 0 mm 2 mps 659 mmHg 29%
    22:00 +20°C° 0 mm 2 mps 659 mmHg 30%
    23:00 +20°C° 0 mm 2 mps 659 mmHg 31%

    23 August, Friday

    Time Temperature Precipitation Wind Pressure Humidity
    00:00 +20°C° 0 mm 2 mps 659 mmHg 32%
    01:00 +19°C° 0 mm 2 mps 659 mmHg 33%
    02:00 +19°C° 0 mm 2 mps 658 mmHg 34%
    03:00 +19°C° 0 mm 2 mps 658 mmHg 35%
    04:00 +19°C° 0 mm 2 mps 659 mmHg 36%
    05:00 +19°C° 0 mm 2 mps 659 mmHg 37%
    06:00 +19°C° 0 mm 2 mps 659 mmHg 37%
    07:00 +21°C° 0 mm 2 mps 660 mmHg 33%
    08:00 +24°C° 0 mm 2 mps 660 mmHg 29%
    09:00 +27°C° 0 mm 2 mps 661 mmHg 25%
    10:00 +28°C° 0 mm 2 mps 661 mmHg 23%
    11:00 +29°C° 0 mm 3 mps 661 mmHg 22%
    12:00 +30°C° 0 mm 3 mps 661 mmHg 21%
    13:00 +31°C° 0 mm 3 mps 660 mmHg 21%
    14:00 +31°C° 0 mm 3 mps 660 mmHg 21%
    15:00 +31°C° 0 mm 3 mps 660 mmHg 21%
    16:00 +30°C° 0 mm 3 mps 659 mmHg 23%
    17:00 +29°C° 0 mm 3 mps 659 mmHg 25%
    18:00 +28°C° 0 mm 3 mps 659 mmHg 27%
    19:00 +26°C° 0 mm 3 mps 659 mmHg 31%
    20:00 +24°C° 0 mm 2 mps 659 mmHg 34%
    21:00 +21°C° 0 mm 2 mps 659 mmHg 37%
    22:00 +20°C° 0 mm 2 mps 659 mmHg 38%
    23:00 +20°C° 0 mm 2 mps 658 mmHg 38%
    Show more